EW2974 Weather Reports


time (UTC)temp
C
wind
direction
speed
KPH
gust
KPH
rain 1hr
cm
rain 24hr
cm
rain mn
cm
humidity
%
barometer
mb
20260504014404 11 215 0.0 0.0 0.00 0.00 0.00 52 1011.3
20260504013904 11 215 0.0 0.0 0.00 0.00 0.00 52 1011.2
20260504012904 11 215 0.0 0.0 0.00 0.00 0.00 51 1011.1
20260504012404 11 215 0.0 0.0 0.00 0.00 0.00 51 1011.1
20260504011905 11 215 0.0 0.0 0.00 0.00 0.00 51 1011.1
20260504011404 11 215 0.0 4.8 0.00 0.00 0.00 50 1011.1
20260504010904 12 213 0.0 0.0 0.00 0.00 0.00 49 1011.1
20260504005904 12 212 0.0 0.0 0.00 0.00 0.00 48 1011.2
20260504005405 12 212 0.0 0.0 0.00 0.00 0.00 48 1011.2
20260504004904 12 207 3.2 14.5 0.00 0.00 0.00 47 1011.2
20260504003404 13 211 0.0 0.0 0.00 0.00 0.00 47 1011.1
20260504002904 13 210 1.6 8.0 0.00 0.00 0.00 46 1011.1
20260504001905 13 214 0.0 8.0 0.00 0.00 0.00 46 1011.2
20260504001404 13 246 1.6 12.9 0.00 0.00 0.00 45 1011.1
20260504000905 13 278 4.8 9.7 0.00 0.00 0.00 44 1011.1
20260504000404 13 259 3.2 9.7 0.00 0.00 0.00 44 1011.3
20260503235904 13 214 4.8 22.5 0.00 0.00 0.00 44 1011.3
20260503235404 13 230 3.2 14.5 0.00 0.00 0.00 43 1011.3
20260503234904 13 239 1.6 9.7 0.00 0.00 0.00 44 1011.3
20260503234404 13 245 3.2 9.7 0.00 0.00 0.00 43 1011.3
20260503233905 13 253 0.0 8.0 0.00 0.00 0.00 44 1011.4
20260503233404 13 271 3.2 9.7 0.00 0.00 0.00 43 1011.4
20260503232905 14 265 0.0 0.0 0.00 0.00 0.00 44 1011.3
20260503231905 14 254 1.6 8.0 0.00 0.00 0.00 43 1011.3
20260503231404 14 251 3.2 12.9 0.00 0.00 0.00 43 1011.3
20260503230905 14 233 0.0 4.8 0.00 0.00 0.00 44 1011.3
20260503230404 14 260 0.0 0.0 0.00 0.00 0.00 45 1011.6
20260503225904 14 262 1.6 8.0 0.00 0.00 0.00 43 1011.6
20260503225404 14 289 3.2 9.7 0.00 0.00 0.00 43 1011.7
20260503224904 14 262 1.6 9.7 0.00 0.00 0.00 43 1011.6
20260503224405 14 273 1.6 25.7 0.00 0.00 0.00 43 1011.7
20260503223904 15 267 4.8 19.3 0.00 0.00 0.00 43 1011.7
20260503223404 15 258 9.7 29.0 0.00 0.00 0.00 41 1011.7
20260503222904 15 235 11.3 25.7 0.00 0.00 0.00 41 1011.7
20260503222404 15 265 11.3 25.7 0.00 0.00 0.00 42 1011.7
20260503221904 15 269 4.8 22.5 0.00 0.00 0.00 43 1011.7
20260503221404 15 268 3.2 14.5 0.00 0.00 0.00 42 1011.7
20260503220904 15 268 3.2 19.3 0.00 0.00 0.00 42 1011.7
20260503220404 15 227 9.7 27.4 0.00 0.00 0.00 42 1011.8
20260503215904 15 227 9.7 20.9 0.00 0.00 0.00 42 1011.7
20260503215404 15 281 1.6 27.4 0.00 0.00 0.00 41 1011.8
20260503214904 15 252 9.7 25.7 0.00 0.00 0.00 41 1011.8
20260503214404 15 261 3.2 9.7 0.00 0.00 0.00 42 1011.8
20260503213905 15 267 6.4 22.5 0.00 0.00 0.00 42 1011.9
20260503213404 15 266 3.2 14.5 0.00 0.00 0.00 42 1011.7
20260503212905 15 220 3.2 22.5 0.00 0.00 0.00 41 1011.6
20260503212404 15 209 3.2 19.3 0.00 0.00 0.00 44 1011.7
20260503211904 15 253 4.8 22.5 0.00 0.00 0.00 39 1011.7
20260503211404 15 245 9.7 22.5 0.00 0.00 0.00 40 1011.7
20260503210404 15 272 4.8 14.5 0.00 0.00 0.00 39 1011.5
20260503205904 15 263 1.6 33.8 0.00 0.00 0.00 41 1011.5
20260503205404 16 295 4.8 33.8 0.00 0.00 0.00 39 1011.6
20260503204904 16 203 11.3 33.8 0.00 0.00 0.00 39 1011.6
20260503204404 15 254 3.2 29.0 0.00 0.00 0.00 39 1011.8
20260503203904 15 266 9.7 29.0 0.00 0.00 0.00 40 1011.7
20260503202904 15 236 4.8 27.4 0.00 0.00 0.00 39 1011.9
20260503202404 15 241 8.0 14.5 0.00 0.00 0.00 39 1011.9
20260503201904 15 248 12.9 29.0 0.00 0.00 0.00 39 1011.9
20260503201404 15 274 3.2 25.7 0.00 0.00 0.00 41 1012.0
20260503200404 15 269 3.2 25.7 0.00 0.00 0.00 40 1012.2
20260503195904 15 235 12.9 33.8 0.00 0.00 0.00 38 1012.3
20260503195404 16 272 11.3 29.0 0.00 0.00 0.00 36 1012.3
20260503194905 16 228 19.3 35.4 0.00 0.00 0.00 36 1012.4
20260503194404 16 248 8.0 12.9 0.00 0.00 0.00 36 1012.3
20260503193904 16 259 6.4 20.9 0.00 0.00 0.00 36 1012.4
20260503193404 16 259 8.0 22.5 0.00 0.00 0.00 36 1012.5
20260503192904 16 238 8.0 25.7 0.00 0.00 0.00 37 1012.7
20260503191404 16 273 12.9 29.0 0.00 0.00 0.00 37 1012.9
20260503190904 15 259 9.7 22.5 0.00 0.00 0.00 37 1013.0
20260503190404 15 261 3.2 12.9 0.00 0.00 0.00 39 1013.0
20260503185404 15 240 11.3 19.3 0.00 0.00 0.00 37 1013.3
20260503184905 15 268 6.4 35.4 0.00 0.00 0.00 39 1013.4
20260503184405 15 242 8.0 22.5 0.00 0.00 0.00 38 1013.3
20260503183904 15 247 8.0 22.5 0.00 0.00 0.00 39 1013.4
20260503183405 15 281 9.7 35.4 0.00 0.00 0.00 37 1013.4
20260503182904 16 244 14.5 33.8 0.00 0.00 0.00 41 1013.2
20260503181904 15 124 8.0 29.0 0.00 0.00 0.00 42 1013.4
20260503181404 15 243 9.7 19.3 0.00 0.00 0.00 42 1013.6
20260503180404 15 228 16.1 37.0 0.00 0.00 0.00 40 1013.6
20260503175904 15 214 8.0 35.4 0.00 0.00 0.00 42 1013.6
20260503175404 15 247 8.0 19.3 0.00 0.00 0.00 43 1013.7
20260503174904 15 250 8.0 29.0 0.00 0.00 0.00 41 1013.9
20260503174404 15 196 4.8 9.7 0.00 0.00 0.00 42 1013.8
20260503173904 15 271 11.3 22.5 0.00 0.00 0.00 41 1013.8
20260503172904 15 252 14.5 25.7 0.00 0.00 0.00 39 1014.2
20260503172404 15 247 9.7 19.3 0.00 0.00 0.00 40 1014.2
20260503171904 15 242 6.4 27.4 0.00 0.00 0.00 42 1014.2
20260503171404 15 254 9.7 29.0 0.00 0.00 0.00 43 1014.4
20260503170404 14 260 8.0 25.7 0.00 0.00 0.00 43 1014.5
20260503150904 11 261 11.3 19.3 0.00 0.00 0.00 43 1015.5
20260503150404 11 241 8.0 22.5 0.00 0.00 0.00 42 1015.5
20260503131404 7 251 12.9 19.3 0.00 0.00 0.00 60 1016.2
20260503130904 7 259 0.0 1.6 0.00 0.00 0.00 63 1016.2
20260503130404 6 256 9.7 20.9 0.00 0.03 0.00 63 1016.2
20260503110404 0 212 0.0 0.0 0.00 0.08 0.00 93 1015.9
20260503090404 0 212 0.0 0.0 0.00 0.33 0.00 92 1015.6
20260503081404 0 212 0.0 0.0 0.00 0.36 0.00 91 1015.6
20260503080904 0 212 0.0 0.0 0.00 0.36 0.00 91 1015.6
20260503080404 0 212 0.0 0.0 0.00 0.36 0.00 91 1015.7
20260503072904 1 212 0.0 0.0 0.00 0.36 0.00 90 1015.6
20260503072404 1 212 0.0 0.0 0.00 0.36 0.00 90 1015.5
20260503071404 1 212 0.0 0.0 0.00 0.38 0.00 90 1015.5
20260503070904 1 212 0.0 0.0 0.00 0.38 0.00 89 1015.5
20260503070404 1 212 0.0 0.0 0.00 0.38 0.00 89 1015.6
20260503054904 2 212 0.0 0.0 0.00 0.38 0.00 86 1015.7
20260503054404 2 212 0.0 0.0 0.00 0.38 0.00 85 1015.7
20260503053404 3 212 0.0 0.0 0.00 0.38 0.00 85 1015.8
20260503052405 3 212 0.0 0.0 0.00 0.38 0.00 85 1015.8
20260503051905 3 212 0.0 0.0 0.00 0.38 0.00 85 1015.8
20260503051405 3 212 0.0 0.0 0.00 0.38 0.00 85 1015.8
20260503050905 3 212 0.0 0.0 0.00 0.38 0.00 84 1015.9
20260503050405 3 212 0.0 0.0 0.00 0.38 0.00 84 1016.0
20260503045906 3 212 0.0 0.0 0.00 0.38 0.00 84 1016.0
20260503045405 3 212 0.0 0.0 0.00 0.38 0.00 84 1016.0
20260503044906 3 212 0.0 0.0 0.00 0.38 0.00 84 1016.1
20260503043905 3 212 0.0 0.0 0.00 0.38 0.00 83 1016.0
20260503043405 3 212 0.0 0.0 0.00 0.38 0.00 84 1016.1
20260503042905 3 212 0.0 0.0 0.00 0.38 0.00 85 1016.1
20260503042405 3 212 0.0 0.0 0.00 0.38 0.00 84 1016.1
20260503041906 3 212 0.0 0.0 0.00 0.38 0.00 84 1016.1
20260503041405 3 212 0.0 0.0 0.00 0.38 0.00 84 1016.2
20260503040405 3 212 0.0 0.0 0.00 0.38 0.00 84 1016.2
20260503035405 3 212 0.0 0.0 0.00 0.38 0.38 85 1016.2
20260503034905 3 212 0.0 0.0 0.00 0.38 0.38 85 1016.2
20260503034405 3 212 0.0 0.0 0.00 0.38 0.38 85 1016.3
20260503033905 3 212 0.0 0.0 0.00 0.38 0.38 85 1016.3
20260503033406 3 212 0.0 0.0 0.00 0.38 0.38 85 1016.3
20260503032905 3 212 0.0 0.0 0.00 0.38 0.38 85 1016.3
20260503032406 3 212 0.0 0.0 0.00 0.38 0.38 85 1016.3
20260503031905 3 212 0.0 0.0 0.00 0.38 0.38 84 1016.3
20260503031406 3 212 0.0 0.0 0.00 0.38 0.38 84 1016.3
20260503030405 3 212 0.0 0.0 0.00 0.38 0.38 84 1016.4
20260503025407 3 212 0.0 0.0 0.00 0.38 0.38 83 1016.5
20260503024906 3 212 0.0 0.0 0.00 0.38 0.38 83 1016.5
20260503024405 3 212 0.0 0.0 0.00 0.38 0.38 82 1016.6
20260503023905 3 212 0.0 0.0 0.00 0.38 0.38 82 1016.7
20260503023405 3 212 0.0 0.0 0.00 0.38 0.38 81 1016.7
20260503022905 3 212 0.0 0.0 0.00 0.38 0.38 81 1016.7
20260503022405 3 212 0.0 0.0 0.00 0.38 0.38 80 1016.7
20260503021905 3 212 0.0 0.0 0.00 0.38 0.38 80 1016.7
20260503021405 3 212 0.0 0.0 0.00 0.38 0.38 80 1016.7
20260503020905 3 212 0.0 0.0 0.00 0.38 0.38 79 1016.7
20260503020406 3 212 0.0 0.0 0.00 0.38 0.38 78 1016.7
20260503015905 3 212 0.0 0.0 0.00 0.38 0.38 78 1016.7
20260503015406 3 212 0.0 0.0 0.00 0.38 0.38 77 1016.8
20260503014905 3 212 0.0 0.0 0.00 0.38 0.38 76 1016.8